Theta_e
295 290 285 290 290 293 291 289 287 290 294 291 291 292 295 297 296 296 295 294 295 295 297 298 298 297 295 295 296 300 300 301 300 299 298 298 298 300 302 306 306 305 304 305
290 286 292 293 293 291 290 287 287 291 292 290 290 291 295 297 296 294 295 295 294 294 296 297 295 294 294 294 297 300 301 301 300 299 299 300 299 302 305 305 304 304 304 306
288 291 295 293 292 290 288 287 285 288 291 291 288 286 290 294 295 294 294 295 295 295 295 295 294 293 293 294 298 300 300 300 300 301 300 301 302 305 307 304 303 303 304 305
290 294 292 290 290 291 286 291 290 290 287 281 287 279 282 290 292 295 295 294 292 294 295 295 294 292 292 294 298 300 300 300 301 301 299 299 300 303 306 304 303 303 305 305
288 288 289 289 290 292 289 291 290 288 285 283 281 278 284 288 291 293 294 294 293 294 294 293 293 293 293 297 297 298 299 300 300 300 300 304 300 305 303 303 303 304 306 307
288 291 290 290 290 291 292 289 288 286 283 275 279 281 282 285 290 292 291 293 294 294 293 294 294 294 295 296 297 297 298 299 299 299 300 303 300 301 302 303 303 304 307 309
286 286 289 291 288 290 288 285 275 274 272 277 282 280 284 289 292 293 292 293 294 293 293 292 292 292 294 296 296 297 298 298 298 298 298 299 299 301 302 303 304 309 310 312
281 278 287 290 289 287 285 285 278 272 275 278 281 279 286 291 291 291 293 293 294 292 293 292 292 292 294 296 296 297 297 297 298 298 298 299 299 300 302 303 306 309 310 313
281 282 288 289 290 290 286 282 286 280 274 275 279 282 288 288 288 289 291 292 292 292 291 292 291 292 293 294 296 297 297 297 298 298 298 299 298 299 301 303 304 305 308 312
289 282 285 287 289 289 286 288 281 279 272 272 278 279 283 287 290 290 290 291 291 292 291 291 290 290 292 293 295 296 297 297 297 298 298 299 298 298 300 304 304 306 308 311
290 287 282 285 284 284 284 283 284 284 281 278 276 280 286 286 287 288 289 291 292 292 292 291 291 290 291 292 294 295 296 297 296 297 297 298 299 299 300 302 305 306 307 309
292 289 279 282 286 287 286 285 285 280 278 280 281 281 288 287 287 288 289 292 293 293 292 291 291 290 289 291 293 295 296 296 297 297 297 297 302 302 298 302 304 305 306 307
292 284 280 282 286 285 283 285 286 285 283 280 278 281 288 289 289 289 288 290 291 292 291 291 291 290 289 289 291 294 295 297 297 297 296 296 297 301 300 301 302 302 303 304
295 287 283 279 281 283 281 282 285 285 280 281 282 283 284 285 285 286 286 288 289 292 293 292 290 290 289 289 290 292 294 296 297 296 295 295 295 299 300 300 300 301 302 302
289 283 283 285 286 286 283 283 283 283 285 281 283 284 282 283 284 283 285 287 286 287 287 288 291 292 290 289 289 291 293 295 296 295 295 295 294 295 299 299 297 298 299 300
288 283 284 279 286 285 284 286 285 284 285 285 285 284 282 285 285 281 283 283 283 283 284 285 287 289 291 292 290 290 292 294 296 296 295 294 293 293 295 297 297 296 298 298
285 283 281 278 282 283 280 283 286 286 281 280 280 280 281 281 282 280 281 282 281 282 283 283 284 286 287 288 290 289 290 293 295 296 295 294 293 292 292 295 296 296 296 297
282 283 283 280 279 275 279 280 283 280 277 279 279 279 279 280 283 281 282 281 281 281 281 282 282 284 285 285 285 288 289 292 293 294 293 293 292 292 290 292 295 295 296 296
284 283 279 274 273 280 281 278 278 278 274 278 278 279 279 281 283 282 283 283 282 281 282 282 282 283 283 282 283 286 288 289 291 292 292 292 291 290 288 289 291 294 294 294
284 284 280 277 274 274 275 278 282 281 272 278 279 278 279 281 278 278 282 283 282 282 282 281 281 282 281 280 282 283 283 283 283 284 289 290 289 291 290 290 288 289 292 291
273 277 276 275 276 273 277 279 282 274 271 278 279 279 279 278 280 283 283 282 283 282 281 281 280 280 280 280 280 280 280 279 281 282 284 287 287 288 290 289 287 288 290 288
270 266 268 269 270 269 279 279 273 277 280 279 280 280 279 281 281 281 281 280 280 280 280 280 278 278 279 280 279 278 278 279 280 281 282 284 286 286 286 287 286 286 288 287
267 268 267 273 272 276 279 279 281 281 280 280 280 279 279 278 278 278 279 279 278 278 278 279 277 277 278 278 278 277 278 278 278 279 280 282 283 284 284 285 286 285 286 288
268 270 268 269 271 275 279 280 281 282 280 279 278 276 276 275 275 275 277 276 276 275 275 276 275 275 275 276 276 277 277 277 276 277 279 281 283 284 282 284 285 286 286 287
270 272 269 269 275 278 276 277 279 279 278 277 275 274 273 272 273 274 273 273 273 273 272 272 272 272 272 273 274 275 276 275 275 276 278 279 281 283 285 285 286 286 288 289
273 271 268 267 274 274 276 277 276 274 274 273 271 271 271 272 271 270 270 271 271 270 270 270 269 269 270 270 272 273 274 274 273 274 276 277 279 281 283 284 285 288 288 289
Wind_Speed
2 4 10 15 9 2 4 3 4 4 3 3 8 15 18 13 12 16 14 10 9 10 4 8 10 11 9 7 8 7 7 5 3 1 1 1 2 2 2 2 1 2 2 1
4 9 8 5 5 6 5 4 7 5 1 3 5 16 19 18 13 7 8 8 7 5 8 10 11 8 7 8 8 7 7 6 3 2 2 1 1 3 2 0 2 2 2 1
7 5 4 9 5 7 5 7 5 6 2 4 6 10 7 6 5 5 4 3 0 8 12 11 12 9 8 8 8 7 7 6 4 3 1 1 1 2 2 1 1 1 1 1
6 6 2 4 5 7 5 5 5 4 2 4 3 9 7 8 12 5 7 5 1 5 6 10 11 8 8 7 7 7 7 6 4 4 2 3 2 3 1 1 1 2 0 1
9 4 6 6 6 8 7 2 3 3 2 3 3 3 11 4 10 7 4 7 4 6 8 10 10 9 7 7 7 6 7 6 5 4 4 3 2 2 1 1 3 1 0 3
6 1 3 7 3 2 6 5 7 5 3 2 5 6 9 5 6 3 2 5 6 7 8 7 6 7 7 6 6 6 7 5 5 5 5 3 3 3 3 2 3 2 1 2
1 2 1 2 6 4 3 6 3 5 3 7 1 4 13 8 8 6 6 8 7 6 8 9 9 8 7 8 7 6 7 6 6 6 5 4 4 3 5 4 3 3 2 2
8 4 10 6 7 9 8 9 7 7 4 3 2 7 11 7 5 3 4 3 5 5 6 9 9 8 8 8 7 7 7 6 6 6 6 5 4 2 2 3 3 3 2 2
6 6 0 1 4 7 7 5 5 5 2 4 5 7 12 2 2 4 4 2 6 6 7 8 8 8 8 8 8 8 7 6 6 6 5 5 4 4 3 4 3 3 3 3
3 2 2 1 2 1 4 5 3 2 2 5 4 5 8 6 8 6 7 8 6 5 6 6 6 8 6 6 6 6 6 7 6 6 5 4 5 4 3 3 4 3 3 4
3 2 1 2 6 8 3 4 3 4 5 5 2 7 4 5 6 8 8 7 7 7 7 7 7 6 6 5 6 6 6 6 6 6 5 6 5 5 4 4 4 3 3 4
1 3 4 7 2 3 2 6 7 5 5 3 3 7 3 6 7 7 9 8 5 6 6 6 6 6 5 6 6 7 6 6 6 6 6 6 5 5 5 5 4 4 4 3
8 5 3 1 3 2 5 5 4 3 3 7 7 5 7 10 17 17 16 17 9 2 3 3 4 6 7 7 7 7 7 7 6 6 6 6 6 6 6 5 5 5 4 4
4 4 4 5 3 3 5 4 7 6 4 4 7 3 9 16 17 17 18 16 18 15 8 5 5 7 7 7 7 8 8 7 6 6 6 7 7 6 6 5 5 5 5 5
3 3 3 5 5 5 1 4 6 14 15 7 4 7 7 10 11 13 13 17 19 19 19 18 15 7 7 6 6 6 7 7 6 7 7 8 7 6 5 6 6 5 5 5
1 1 1 4 9 8 11 8 5 5 8 14 13 5 5 6 8 14 16 17 18 17 18 17 17 16 17 9 7 7 7 8 8 9 10 7 7 7 7 6 6 6 6 5
3 1 0 4 3 4 5 12 13 5 6 4 6 5 7 6 12 14 16 14 15 16 16 17 17 16 16 16 16 8 7 6 8 9 8 8 7 8 7 7 7 8 8 6
3 2 1 3 3 4 4 4 1 14 10 9 8 9 8 7 5 12 14 14 14 15 15 15 14 15 15 15 16 15 8 6 7 7 7 7 7 8 7 7 8 8 7 8
9 3 3 3 3 1 3 7 5 4 6 9 8 9 9 12 6 8 12 11 12 12 12 12 12 12 13 14 16 14 13 6 4 5 7 7 8 8 7 9 9 8 6 7
7 10 4 2 3 4 5 8 4 6 3 5 7 10 13 14 4 3 10 11 11 10 11 13 14 12 13 15 14 13 13 12 12 12 12 7 6 9 10 10 9 7 6 8
4 1 8 8 4 4 9 11 4 6 3 2 3 5 7 6 3 6 8 10 9 9 12 13 12 12 13 13 13 12 11 13 12 12 12 9 7 8 9 8 5 7 8 6
1 2 2 3 1 3 7 2 4 2 2 3 3 3 6 6 7 7 8 10 12 13 13 13 12 12 12 12 13 12 12 13 13 12 11 10 8 6 5 8 7 6 7 8
2 3 2 2 2 1 4 6 6 4 1 2 2 4 7 9 8 10 9 10 11 12 13 11 12 13 11 12 12 13 14 14 14 13 12 11 10 7 5 6 7 5 7 8
5 2 1 5 4 4 4 1 2 2 3 3 4 4 5 7 9 11 9 9 10 11 11 12 14 14 14 12 14 12 13 14 13 12 12 11 10 9 5 4 4 6 7 8
6 2 3 5 0 3 1 1 2 1 4 3 3 3 4 7 9 9 10 11 11 12 12 12 13 14 15 14 14 12 13 13 13 12 10 10 8 9 8 5 6 7 8 9
4 5 4 5 4 4 2 4 2 3 1 1 3 3 4 4 6 8 9 9 9 11 11 12 12 12 14 14 14 13 12 13 12 12 9 9 8 8 7 7 7 10 15 12
Wind_Direction
199 126 205 201 199 126 148 192 245 281 250 201 237 269 280 278 264 278 265 255 237 226 206 132 134 130 125 130 131 135 129 136 119 89 93 321 297 305 311 4 248 145 109 148
79 233 215 197 213 239 283 277 262 273 231 220 285 276 282 280 263 247 259 275 247 166 136 134 135 134 142 146 141 134 132 135 131 139 189 188 235 277 259 218 66 99 84 300
170 230 175 182 187 196 222 210 225 226 324 272 323 290 324 292 272 252 215 232 345 187 153 149 152 156 144 149 152 142 143 140 147 159 129 302 273 258 93 34 79 100 80 18
240 253 189 166 217 159 229 213 194 189 104 229 17 285 300 289 300 272 254 239 105 127 133 151 151 156 159 159 146 138 142 144 154 162 144 199 189 142 124 204 156 75 148 123
233 192 191 189 206 164 225 88 175 155 114 11 327 75 267 322 296 305 291 227 189 165 154 159 160 156 154 148 152 147 142 144 157 172 175 221 166 169 183 98 100 100 46 125
221 26 188 195 107 175 138 82 37 41 82 350 232 151 288 242 216 270 294 249 198 171 157 149 140 138 144 146 146 150 146 158 169 177 186 228 202 163 128 110 114 126 105 103
109 225 305 151 85 38 101 90 308 348 360 220 318 90 245 268 272 252 255 230 219 181 162 158 157 163 157 165 166 162 157 173 181 184 194 205 226 187 134 132 140 138 152 152
155 266 176 194 176 177 191 166 165 206 202 255 33 228 253 230 273 301 287 238 176 187 179 171 169 169 171 172 171 169 169 179 183 186 199 195 210 233 146 135 136 133 126 154
164 254 332 132 155 157 195 195 176 100 34 55 228 278 299 350 318 315 297 169 196 198 196 181 169 178 176 177 185 176 177 187 188 190 195 192 200 209 191 155 146 145 137 158
202 231 350 169 179 40 151 171 91 358 185 246 275 275 240 359 325 301 282 253 234 207 189 197 190 185 192 188 182 176 185 191 191 188 198 198 193 209 211 188 171 158 138 143
188 168 308 155 210 173 160 191 206 146 164 184 165 256 223 341 337 333 320 263 232 210 202 208 201 199 190 181 182 190 190 195 197 192 193 211 192 195 215 209 186 182 179 154
65 77 201 206 273 240 261 212 176 154 212 228 150 272 10 11 354 345 351 335 253 212 208 216 207 190 189 200 193 200 196 198 202 194 191 201 207 188 198 206 195 191 195 192
152 201 145 295 337 348 219 197 202 126 88 204 139 242 33 27 30 19 20 3 340 199 201 217 210 206 204 210 205 203 204 209 202 191 193 201 214 194 203 204 202 190 195 196
74 187 216 185 155 116 185 216 212 196 200 196 212 221 27 14 11 4 6 10 16 14 352 314 254 223 212 210 206 206 215 208 198 194 195 199 207 210 200 198 208 198 200 197
33 241 206 263 309 347 323 235 213 222 238 219 188 214 41 11 8 359 2 12 18 15 10 5 353 312 281 250 228 225 217 205 194 193 200 211 202 208 208 195 200 217 214 211
31 294 141 271 213 227 256 262 271 262 253 259 262 255 358 3 28 14 15 14 12 5 1 357 358 355 358 309 262 244 221 208 191 200 211 204 197 198 208 201 196 205 215 214
318 302 158 265 308 185 258 259 245 200 58 356 246 28 17 20 38 23 13 13 9 360 356 355 353 350 354 352 346 292 244 213 202 208 210 204 197 202 202 203 195 210 213 205
317 303 293 298 7 243 130 1 96 93 53 22 39 21 354 338 99 59 28 14 7 360 355 352 347 346 352 348 342 330 304 229 217 214 206 207 203 211 200 198 211 212 211 215
216 305 274 228 209 161 118 16 3 20 61 22 22 7 343 324 178 77 26 15 4 357 353 347 342 343 347 353 344 346 356 313 274 245 227 212 199 208 202 210 214 214 210 215
220 220 269 228 234 262 52 332 315 303 146 21 14 7 359 360 78 14 355 355 353 352 350 348 343 346 356 356 349 359 9 10 4 347 323 274 229 216 210 215 209 206 211 220
334 293 227 240 268 61 327 314 299 191 88 6 346 355 353 21 349 315 335 342 345 344 346 347 346 349 350 350 347 359 0 2 339 328 319 307 257 225 223 220 199 203 211 210
335 357 328 330 313 199 314 72 69 64 168 249 285 296 318 317 315 329 330 336 341 343 346 348 342 340 342 349 346 348 355 340 333 327 322 316 296 256 242 215 216 214 205 211
323 166 223 290 285 181 299 127 148 190 234 299 318 11 342 317 327 327 330 336 338 340 339 342 335 328 336 345 346 335 338 337 334 328 327 323 315 288 241 225 226 213 214 219
313 206 227 31 298 179 161 63 154 214 271 62 51 4 338 321 322 323 331 339 336 339 338 338 332 331 330 335 334 326 330 332 328 326 327 327 327 321 274 244 234 225 213 220
212 38 214 267 25 117 113 207 159 10 76 60 22 358 333 324 323 335 332 335 337 336 337 338 335 330 325 325 323 322 327 326 327 323 323 328 326 325 313 267 249 237 238 222
192 206 156 231 224 168 183 166 128 152 132 25 329 323 338 345 330 334 323 329 329 330 328 328 327 322 321 322 321 322 324 322 321 321 323 326 319 317 317 306 291 247 248 249